QPF
0.00 0.00 0.00 0.00 0.00 0.00 0.00 0.00 0.00 0.00 0.00 0.00 0.00 0.00 0.00 0.00 0.00 0.00 0.00 0.00 0.00 0.00 0.00 0.00 0.00 0.00 0.00 0.00 0.01 0.01 0.02 0.02 0.02 0.02 0.02 0.03 0.03 0.03 0.02 0.02 0.03 0.05 0.02 0.01
0.00 0.00 0.00 0.00 0.00 0.00 0.00 0.00 0.00 0.00 0.00 0.00 0.00 0.00 0.00 0.00 0.00 0.00 0.00 0.00 0.00 0.00 0.00 0.00 0.01 0.01 0.00 0.00 0.00 0.01 0.02 0.02 0.02 0.02 0.03 0.05 0.05 0.03 0.01 0.01 0.02 0.01 0.01 0.01
0.00 0.00 0.00 0.00 0.00 0.00 0.00 0.00 0.00 0.00 0.00 0.00 0.00 0.00 0.00 0.00 0.00 0.00 0.00 0.00 0.00 0.00 0.00 0.00 0.00 0.00 0.00 0.00 0.00 0.01 0.01 0.01 0.02 0.02 0.02 0.04 0.03 0.02 0.01 0.01 0.02 0.02 0.01 0.01
0.00 0.00 0.00 0.00 0.00 0.00 0.00 0.00 0.00 0.00 0.00 0.00 0.00 0.00 0.00 0.00 0.00 0.00 0.00 0.00 0.00 0.00 0.00 0.00 0.00 0.00 0.00 0.00 0.01 0.01 0.01 0.01 0.01 0.01 0.01 0.01 0.01 0.01 0.01 0.01 0.01 0.01 0.01 0.01
0.00 0.00 0.00 0.00 0.00 0.00 0.00 0.00 0.00 0.00 0.00 0.00 0.00 0.00 0.00 0.00 0.00 0.00 0.00 0.00 0.00 0.00 0.00 0.00 0.00 0.00 0.01 0.01 0.01 0.01 0.01 0.01 0.00 0.00 0.01 0.01 0.01 0.01 0.01 0.01 0.01 0.01 0.02 0.02
0.00 0.00 0.00 0.00 0.00 0.00 0.00 0.00 0.00 0.00 0.00 0.00 0.00 0.00 0.00 0.00 0.00 0.00 0.00 0.00 0.00 0.00 0.00 0.00 0.01 0.01 0.02 0.01 0.01 0.01 0.01 0.01 0.01 0.00 0.00 0.01 0.01 0.01 0.02 0.02 0.02 0.03 0.04 0.06
0.00 0.00 0.00 0.00 0.00 0.00 0.00 0.00 0.00 0.00 0.00 0.00 0.00 0.00 0.00 0.00 0.00 0.00 0.00 0.00 0.00 0.00 0.01 0.02 0.02 0.02 0.02 0.02 0.02 0.01 0.01 0.01 0.01 0.00 0.00 0.01 0.02 0.03 0.05 0.04 0.03 0.04 0.06 0.08
0.00 0.00 0.00 0.00 0.00 0.00 0.00 0.00 0.00 0.00 0.00 0.00 0.00 0.00 0.00 0.00 0.00 0.00 0.00 0.00 0.01 0.01 0.01 0.01 0.01 0.01 0.01 0.02 0.02 0.02 0.02 0.02 0.01 0.01 0.01 0.01 0.02 0.03 0.04 0.04 0.05 0.07 0.09 0.11
0.00 0.00 0.00 0.00 0.00 0.00 0.00 0.00 0.00 0.01 0.00 0.00 0.00 0.01 0.01 0.00 0.00 0.01 0.01 0.01 0.01 0.01 0.01 0.01 0.01 0.01 0.01 0.02 0.02 0.03 0.03 0.03 0.02 0.01 0.01 0.02 0.03 0.04 0.04 0.02 0.02 0.02 0.01 0.01
0.00 0.00 0.00 0.00 0.00 0.01 0.01 0.00 0.00 0.01 0.01 0.01 0.01 0.01 0.01 0.01 0.01 0.01 0.01 0.01 0.01 0.01 0.01 0.01 0.01 0.01 0.01 0.02 0.02 0.03 0.03 0.04 0.04 0.04 0.03 0.03 0.03 0.03 0.03 0.02 0.01 0.01 0.01 0.01
0.01 0.01 0.00 0.00 0.00 0.00 0.01 0.01 0.02 0.02 0.02 0.02 0.02 0.02 0.02 0.02 0.02 0.02 0.02 0.02 0.02 0.01 0.01 0.01 0.01 0.01 0.01 0.02 0.03 0.04 0.05 0.05 0.05 0.04 0.03 0.03 0.02 0.02 0.02 0.02 0.01 0.01 0.01 0.01
0.01 0.01 0.01 0.00 0.00 0.01 0.02 0.03 0.03 0.03 0.02 0.03 0.04 0.04 0.04 0.03 0.04 0.04 0.03 0.03 0.03 0.03 0.02 0.02 0.02 0.03 0.04 0.05 0.05 0.05 0.04 0.03 0.02 0.02 0.01 0.02 0.02 0.02 0.02 0.02 0.02 0.01 0.02 0.02
0.02 0.01 0.01 0.00 0.01 0.02 0.04 0.04 0.03 0.03 0.03 0.03 0.04 0.04 0.04 0.04 0.04 0.03 0.04 0.03 0.03 0.03 0.04 0.06 0.06 0.07 0.10 0.11 0.10 0.08 0.07 0.05 0.02 0.02 0.01 0.02 0.03 0.02 0.02 0.02 0.02 0.02 0.02 0.03
0.02 0.02 0.02 0.03 0.03 0.03 0.03 0.05 0.05 0.04 0.04 0.05 0.06 0.05 0.04 0.04 0.03 0.03 0.03 0.05 0.06 0.04 0.05 0.08 0.12 0.12 0.10 0.09 0.09 0.09 0.08 0.06 0.03 0.02 0.02 0.03 0.03 0.03 0.03 0.02 0.03 0.03 0.03 0.03
0.03 0.04 0.07 0.10 0.06 0.03 0.04 0.06 0.06 0.05 0.06 0.08 0.08 0.06 0.05 0.04 0.04 0.03 0.02 0.02 0.03 0.04 0.05 0.05 0.06 0.07 0.07 0.06 0.06 0.06 0.05 0.04 0.02 0.03 0.03 0.03 0.03 0.02 0.02 0.03 0.03 0.04 0.04 0.04
0.04 0.06 0.09 0.07 0.05 0.05 0.05 0.06 0.06 0.08 0.08 0.08 0.07 0.06 0.05 0.05 0.04 0.04 0.03 0.03 0.03 0.03 0.03 0.05 0.05 0.04 0.05 0.06 0.06 0.06 0.06 0.04 0.03 0.03 0.03 0.03 0.03 0.02 0.02 0.02 0.02 0.02 0.02 0.02
0.04 0.06 0.09 0.06 0.06 0.05 0.05 0.06 0.06 0.09 0.10 0.09 0.07 0.05 0.04 0.04 0.04 0.03 0.03 0.03 0.03 0.03 0.03 0.04 0.05 0.06 0.07 0.08 0.09 0.08 0.08 0.07 0.05 0.04 0.04 0.03 0.02 0.02 0.02 0.02 0.02 0.02 0.03 0.02
0.06 0.06 0.06 0.07 0.09 0.06 0.05 0.06 0.06 0.07 0.09 0.10 0.09 0.08 0.06 0.04 0.03 0.03 0.03 0.03 0.03 0.03 0.03 0.03 0.06 0.08 0.09 0.09 0.09 0.08 0.05 0.04 0.02 0.03 0.02 0.02 0.02 0.02 0.02 0.02 0.01 0.02 0.02 0.02
0.07 0.06 0.05 0.05 0.06 0.06 0.05 0.05 0.06 0.06 0.07 0.08 0.06 0.07 0.07 0.07 0.05 0.04 0.04 0.04 0.03 0.02 0.03 0.03 0.02 0.03 0.03 0.03 0.03 0.04 0.04 0.02 0.02 0.02 0.02 0.02 0.02 0.02 0.01 0.01 0.01 0.01 0.02 0.02
0.06 0.06 0.05 0.03 0.04 0.04 0.04 0.04 0.05 0.05 0.05 0.06 0.05 0.04 0.04 0.05 0.05 0.04 0.03 0.03 0.03 0.03 0.02 0.02 0.02 0.01 0.01 0.01 0.01 0.01 0.01 0.01 0.01 0.02 0.02 0.02 0.01 0.01 0.01 0.01 0.01 0.01 0.02 0.02
0.06 0.05 0.04 0.04 0.04 0.04 0.06 0.06 0.04 0.05 0.05 0.05 0.04 0.04 0.05 0.06 0.06 0.05 0.04 0.03 0.02 0.02 0.02 0.01 0.01 0.01 0.01 0.02 0.01 0.01 0.01 0.01 0.01 0.01 0.01 0.02 0.03 0.03 0.02 0.02 0.02 0.02 0.02 0.02
0.08 0.06 0.05 0.06 0.06 0.07 0.08 0.07 0.05 0.05 0.05 0.04 0.03 0.04 0.04 0.03 0.03 0.04 0.04 0.04 0.03 0.02 0.01 0.02 0.02 0.02 0.02 0.02 0.02 0.01 0.01 0.02 0.02 0.02 0.02 0.02 0.03 0.04 0.04 0.04 0.04 0.03 0.03 0.03
0.08 0.09 0.07 0.08 0.08 0.07 0.07 0.06 0.06 0.05 0.05 0.04 0.03 0.03 0.03 0.02 0.02 0.02 0.03 0.03 0.02 0.02 0.02 0.02 0.02 0.02 0.03 0.02 0.02 0.03 0.03 0.03 0.03 0.03 0.02 0.03 0.03 0.03 0.03 0.03 0.04 0.03 0.03 0.02
0.07 0.08 0.08 0.09 0.10 0.08 0.07 0.06 0.04 0.03 0.03 0.02 0.02 0.03 0.03 0.03 0.03 0.03 0.03 0.02 0.02 0.02 0.03 0.03 0.03 0.03 0.03 0.03 0.03 0.03 0.04 0.04 0.04 0.03 0.03 0.03 0.03 0.03 0.02 0.01 0.02 0.03 0.03 0.04
0.05 0.05 0.06 0.09 0.11 0.07 0.04 0.03 0.03 0.02 0.01 0.02 0.01 0.01 0.02 0.03 0.04 0.04 0.03 0.02 0.02 0.02 0.03 0.03 0.02 0.02 0.02 0.03 0.03 0.03 0.03 0.04 0.05 0.05 0.04 0.04 0.03 0.03 0.02 0.02 0.03 0.04 0.04 0.04
0.03 0.03 0.03 0.05 0.07 0.06 0.03 0.02 0.02 0.02 0.02 0.02 0.02 0.02 0.02 0.02 0.03 0.03 0.02 0.03 0.03 0.02 0.02 0.03 0.03 0.02 0.02 0.03 0.03 0.03 0.03 0.02 0.03 0.03 0.05 0.05 0.04 0.02 0.02 0.03 0.04 0.06 0.05 0.03
0.02 0.03 0.04 0.03 0.03 0.03 0.02 0.02 0.02 0.03 0.03 0.03 0.03 0.03 0.03 0.03 0.03 0.02 0.02 0.04 0.04 0.03 0.04 0.04 0.03 0.03 0.04 0.04 0.04 0.04 0.03 0.03 0.03 0.02 0.02 0.03 0.03 0.02 0.01 0.02 0.03 0.04 0.03 0.02
MSLP
1015.44 1015.26 1015.18 1015.22 1015.36 1015.57 1015.79 1015.98 1016.06 1016.01 1015.80 1015.46 1014.99 1014.45 1013.89 1013.35 1012.86 1012.45 1012.11 1011.85 1011.66 1011.52 1011.43 1011.40 1011.42 1011.51 1011.68 1011.93 1012.25 1012.63 1013.04 1013.44 1013.81 1014.11 1014.34 1014.48 1014.54 1014.55 1014.52 1014.48 1014.45 1014.43 1014.43 1014.46
1016.04 1015.86 1015.73 1015.69 1015.73 1015.83 1015.97 1016.09 1016.16 1016.14 1016.01 1015.76 1015.40 1014.96 1014.47 1013.95 1013.42 1012.91 1012.42 1011.98 1011.58 1011.25 1010.97 1010.79 1010.70 1010.73 1010.87 1011.14 1011.50 1011.95 1012.43 1012.92 1013.38 1013.78 1014.10 1014.33 1014.48 1014.56 1014.59 1014.59 1014.58 1014.56 1014.55 1014.55
1016.64 1016.46 1016.30 1016.20 1016.16 1016.18 1016.23 1016.30 1016.34 1016.33 1016.25 1016.07 1015.79 1015.42 1014.96 1014.44 1013.87 1013.26 1012.64 1012.03 1011.44 1010.92 1010.48 1010.15 1009.96 1009.92 1010.03 1010.30 1010.69 1011.18 1011.72 1012.28 1012.82 1013.31 1013.72 1014.05 1014.29 1014.46 1014.57 1014.63 1014.65 1014.66 1014.64 1014.62
1017.19 1017.02 1016.84 1016.70 1016.60 1016.54 1016.53 1016.55 1016.56 1016.54 1016.47 1016.32 1016.08 1015.74 1015.30 1014.76 1014.14 1013.44 1012.70 1011.95 1011.22 1010.54 1009.96 1009.52 1009.23 1009.12 1009.18 1009.43 1009.82 1010.33 1010.91 1011.52 1012.12 1012.68 1013.18 1013.60 1013.94 1014.20 1014.39 1014.53 1014.61 1014.65 1014.65 1014.63
1017.64 1017.48 1017.30 1017.13 1016.99 1016.89 1016.82 1016.78 1016.75 1016.71 1016.63 1016.48 1016.24 1015.90 1015.45 1014.88 1014.20 1013.43 1012.60 1011.74 1010.90 1010.12 1009.44 1008.90 1008.53 1008.35 1008.37 1008.57 1008.94 1009.43 1010.01 1010.64 1011.27 1011.89 1012.46 1012.96 1013.40 1013.76 1014.04 1014.26 1014.42 1014.51 1014.56 1014.55
1017.96 1017.81 1017.63 1017.46 1017.30 1017.16 1017.05 1016.97 1016.90 1016.82 1016.70 1016.52 1016.26 1015.89 1015.40 1014.80 1014.07 1013.25 1012.36 1011.44 1010.53 1009.67 1008.93 1008.32 1007.89 1007.66 1007.61 1007.76 1008.08 1008.53 1009.08 1009.70 1010.34 1010.98 1011.60 1012.18 1012.70 1013.16 1013.54 1013.86 1014.10 1014.26 1014.35 1014.39
1018.13 1018.00 1017.83 1017.66 1017.49 1017.33 1017.20 1017.08 1016.96 1016.83 1016.67 1016.45 1016.14 1015.73 1015.20 1014.56 1013.80 1012.94 1012.02 1011.07 1010.13 1009.25 1008.47 1007.83 1007.36 1007.07 1006.97 1007.06 1007.31 1007.69 1008.19 1008.77 1009.39 1010.05 1010.70 1011.33 1011.92 1012.47 1012.95 1013.36 1013.68 1013.92 1014.07 1014.15
1018.19 1018.06 1017.90 1017.73 1017.56 1017.39 1017.23 1017.08 1016.93 1016.75 1016.54 1016.26 1015.91 1015.45 1014.88 1014.21 1013.43 1012.56 1011.64 1010.69 1009.76 1008.88 1008.11 1007.46 1006.97 1006.64 1006.49 1006.51 1006.69 1007.01 1007.44 1007.96 1008.55 1009.19 1009.85 1010.52 1011.17 1011.79 1012.35 1012.84 1013.24 1013.55 1013.76 1013.87
1018.16 1018.02 1017.86 1017.68 1017.50 1017.32 1017.15 1016.97 1016.77 1016.56 1016.30 1015.98 1015.57 1015.08 1014.48 1013.79 1013.01 1012.16 1011.26 1010.34 1009.45 1008.62 1007.87 1007.25 1006.76 1006.41 1006.22 1006.19 1006.30 1006.54 1006.90 1007.36 1007.90 1008.52 1009.17 1009.86 1010.54 1011.21 1011.83 1012.38 1012.84 1013.20 1013.44 1013.59
1018.08 1017.92 1017.73 1017.53 1017.33 1017.13 1016.92 1016.71 1016.48 1016.22 1015.92 1015.56 1015.13 1014.62 1014.01 1013.33 1012.57 1011.75 1010.91 1010.06 1009.24 1008.47 1007.78 1007.20 1006.74 1006.40 1006.19 1006.12 1006.18 1006.36 1006.66 1007.06 1007.55 1008.12 1008.75 1009.43 1010.12 1010.80 1011.45 1012.03 1012.52 1012.90 1013.17 1013.34
1017.99 1017.77 1017.53 1017.28 1017.03 1016.78 1016.52 1016.27 1016.00 1015.71 1015.38 1015.00 1014.56 1014.05 1013.46 1012.81 1012.10 1011.36 1010.59 1009.84 1009.11 1008.43 1007.83 1007.32 1006.90 1006.59 1006.40 1006.31 1006.34 1006.48 1006.72 1007.06 1007.50 1008.03 1008.62 1009.27 1009.94 1010.61 1011.24 1011.82 1012.31 1012.70 1012.97 1013.13
1017.88 1017.57 1017.24 1016.91 1016.58 1016.25 1015.93 1015.62 1015.31 1014.99 1014.64 1014.26 1013.82 1013.34 1012.80 1012.22 1011.59 1010.94 1010.29 1009.64 1009.03 1008.47 1007.97 1007.55 1007.21 1006.95 1006.78 1006.71 1006.74 1006.85 1007.06 1007.36 1007.75 1008.22 1008.77 1009.36 1009.99 1010.61 1011.21 1011.75 1012.21 1012.58 1012.84 1012.98
1017.74 1017.32 1016.87 1016.42 1015.97 1015.54 1015.14 1014.76 1014.40 1014.04 1013.69 1013.31 1012.92 1012.49 1012.03 1011.53 1011.02 1010.49 1009.96 1009.45 1008.97 1008.53 1008.15 1007.83 1007.58 1007.39 1007.28 1007.24 1007.27 1007.39 1007.58 1007.85 1008.20 1008.62 1009.11 1009.65 1010.21 1010.77 1011.31 1011.80 1012.22 1012.55 1012.78 1012.92
1017.57 1017.00 1016.41 1015.81 1015.23 1014.68 1014.17 1013.71 1013.30 1012.92 1012.56 1012.22 1011.87 1011.52 1011.15 1010.77 1010.38 1009.98 1009.59 1009.22 1008.88 1008.58 1008.32 1008.10 1007.94 1007.84 1007.79 1007.79 1007.86 1007.98 1008.18 1008.43 1008.75 1009.14 1009.57 1010.04 1010.54 1011.03 1011.50 1011.93 1012.30 1012.59 1012.80 1012.93
1017.35 1016.64 1015.89 1015.13 1014.40 1013.72 1013.11 1012.57 1012.10 1011.70 1011.35 1011.05 1010.77 1010.50 1010.24 1009.98 1009.72 1009.46 1009.22 1008.98 1008.77 1008.59 1008.44 1008.33 1008.26 1008.22 1008.24 1008.29 1008.40 1008.55 1008.75 1009.01 1009.31 1009.66 1010.05 1010.47 1010.91 1011.34 1011.75 1012.13 1012.45 1012.72 1012.91 1013.04
1017.11 1016.25 1015.35 1014.45 1013.58 1012.78 1012.07 1011.46 1010.95 1010.54 1010.21 1009.95 1009.74 1009.57 1009.41 1009.27 1009.13 1009.00 1008.87 1008.76 1008.66 1008.58 1008.52 1008.49 1008.49 1008.52 1008.59 1008.70 1008.84 1009.02 1009.24 1009.50 1009.81 1010.15 1010.51 1010.90 1011.29 1011.68 1012.05 1012.38 1012.68 1012.92 1013.11 1013.26
1016.87 1015.89 1014.87 1013.85 1012.88 1011.99 1011.21 1010.55 1010.01 1009.60 1009.29 1009.08 1008.93 1008.84 1008.78 1008.74 1008.70 1008.68 1008.65 1008.62 1008.60 1008.59 1008.60 1008.62 1008.67 1008.75 1008.86 1009.00 1009.17 1009.38 1009.63 1009.91 1010.23 1010.57 1010.94 1011.31 1011.69 1012.05 1012.39 1012.70 1012.98 1013.22 1013.41 1013.57
1016.68 1015.63 1014.53 1013.45 1012.42 1011.48 1010.66 1009.97 1009.43 1009.03 1008.74 1008.57 1008.48 1008.45 1008.46 1008.49 1008.53 1008.57 1008.61 1008.63 1008.66 1008.69 1008.73 1008.78 1008.86 1008.95 1009.08 1009.24 1009.44 1009.68 1009.96 1010.26 1010.60 1010.97 1011.34 1011.72 1012.10 1012.46 1012.80 1013.10 1013.37 1013.61 1013.80 1013.97
1016.58 1015.51 1014.40 1013.30 1012.27 1011.32 1010.50 1009.83 1009.30 1008.91 1008.66 1008.51 1008.46 1008.47 1008.52 1008.59 1008.66 1008.74 1008.80 1008.85 1008.89 1008.93 1008.98 1009.03 1009.10 1009.20 1009.34 1009.51 1009.72 1009.98 1010.27 1010.61 1010.97 1011.36 1011.76 1012.16 1012.55 1012.92 1013.26 1013.57 1013.83 1014.06 1014.25 1014.41
1016.58 1015.54 1014.48 1013.43 1012.43 1011.53 1010.75 1010.10 1009.61 1009.24 1009.00 1008.88 1008.83 1008.85 1008.91 1008.99 1009.07 1009.14 1009.21 1009.25 1009.29 1009.32 1009.35 1009.40 1009.46 1009.55 1009.68 1009.85 1010.06 1010.33 1010.64 1011.00 1011.38 1011.80 1012.22 1012.64 1013.04 1013.42 1013.76 1014.06 1014.32 1014.53 1014.70 1014.83
1016.64 1015.69 1014.72 1013.75 1012.84 1012.02 1011.30 1010.71 1010.24 1009.90 1009.67 1009.54 1009.49 1009.49 1009.53 1009.58 1009.64 1009.70 1009.75 1009.78 1009.80 1009.82 1009.83 1009.86 1009.92 1010.00 1010.11 1010.28 1010.50 1010.77 1011.09 1011.45 1011.85 1012.27 1012.70 1013.13 1013.54 1013.92 1014.25 1014.54 1014.77 1014.94 1015.08 1015.17
1016.72 1015.89 1015.03 1014.19 1013.38 1012.66 1012.01 1011.47 1011.04 1010.71 1010.47 1010.32 1010.24 1010.20 1010.20 1010.22 1010.25 1010.28 1010.30 1010.32 1010.33 1010.34 1010.36 1010.39 1010.44 1010.51 1010.63 1010.79 1011.01 1011.27 1011.58 1011.94 1012.34 1012.75 1013.18 1013.60 1013.99 1014.35 1014.66 1014.91 1015.10 1015.23 1015.32 1015.36
1016.73 1016.03 1015.31 1014.59 1013.91 1013.28 1012.71 1012.22 1011.81 1011.48 1011.22 1011.04 1010.91 1010.82 1010.77 1010.75 1010.74 1010.74 1010.75 1010.76 1010.78 1010.80 1010.83 1010.88 1010.94 1011.03 1011.16 1011.32 1011.53 1011.78 1012.08 1012.41 1012.78 1013.17 1013.57 1013.95 1014.31 1014.63 1014.90 1015.11 1015.26 1015.34 1015.38 1015.36
1016.63 1016.06 1015.46 1014.87 1014.29 1013.75 1013.24 1012.79 1012.39 1012.05 1011.77 1011.53 1011.35 1011.21 1011.11 1011.04 1011.00 1010.99 1011.00 1011.02 1011.07 1011.12 1011.19 1011.27 1011.37 1011.48 1011.62 1011.79 1011.99 1012.22 1012.49 1012.79 1013.12 1013.46 1013.81 1014.14 1014.45 1014.72 1014.94 1015.10 1015.21 1015.25 1015.24 1015.18
1016.39 1015.93 1015.45 1014.95 1014.47 1013.99 1013.54 1013.11 1012.71 1012.35 1012.03 1011.75 1011.51 1011.32 1011.17 1011.07 1011.01 1011.00 1011.02 1011.08 1011.16 1011.26 1011.38 1011.51 1011.65 1011.80 1011.96 1012.13 1012.32 1012.53 1012.76 1013.02 1013.29 1013.57 1013.86 1014.13 1014.38 1014.60 1014.77 1014.89 1014.95 1014.97 1014.93 1014.86
1016.03 1015.66 1015.26 1014.85 1014.43 1014.01 1013.59 1013.17 1012.77 1012.39 1012.04 1011.71 1011.43 1011.19 1011.01 1010.89 1010.82 1010.82 1010.86 1010.96 1011.09 1011.24 1011.42 1011.60 1011.78 1011.96 1012.14 1012.32 1012.49 1012.67 1012.86 1013.06 1013.27 1013.49 1013.71 1013.92 1014.12 1014.29 1014.42 1014.52 1014.57 1014.57 1014.54 1014.47
1015.62 1015.30 1014.97 1014.62 1014.25 1013.87 1013.47 1013.07 1012.67 1012.27 1011.89 1011.54 1011.22 1010.96 1010.76 1010.62 1010.56 1010.57 1010.64 1010.76 1010.94 1011.14 1011.36 1011.58 1011.80 1012.00 1012.19 1012.35 1012.51 1012.65 1012.79 1012.94 1013.09 1013.25 1013.41 1013.57 1013.73 1013.87 1013.99 1014.08 1014.13 1014.15 1014.14 1014.11
Thickness
5789 5798 5800 5797 5798 5801 5802 5807 5805 5811 5814 5821 5829 5832 5834 5836 5835 5833 5831 5829 5827 5824 5821 5817 5813 5809 5805 5801 5797 5793 5788 5782 5777 5773 5769 5764 5759 5755 5751 5747 5743 5739 5736 5733
5774 5787 5790 5788 5795 5798 5799 5803 5806 5809 5810 5827 5830 5832 5829 5829 5829 5827 5826 5826 5825 5822 5819 5816 5812 5808 5804 5799 5796 5791 5786 5781 5776 5771 5766 5761 5757 5753 5748 5744 5740 5736 5733 5729
5762 5776 5775 5771 5789 5793 5795 5802 5804 5800 5809 5821 5820 5820 5821 5823 5823 5823 5823 5823 5821 5821 5819 5815 5813 5809 5804 5799 5795 5789 5784 5779 5774 5770 5764 5759 5755 5750 5746 5741 5737 5732 5729 5725
5757 5755 5743 5778 5799 5800 5795 5798 5805 5805 5810 5814 5815 5819 5822 5822 5820 5820 5821 5821 5820 5819 5817 5815 5812 5808 5803 5799 5793 5786 5781 5776 5771 5767 5761 5756 5751 5746 5742 5737 5732 5728 5724 5721
5748 5745 5754 5770 5782 5787 5783 5783 5797 5798 5801 5806 5812 5813 5814 5819 5819 5818 5820 5820 5819 5817 5815 5812 5809 5805 5799 5793 5788 5783 5778 5772 5768 5764 5757 5751 5746 5742 5737 5732 5727 5723 5720 5716
5739 5734 5737 5761 5778 5786 5780 5768 5786 5789 5790 5795 5798 5795 5801 5811 5812 5813 5815 5815 5813 5813 5811 5806 5803 5800 5794 5789 5784 5779 5775 5770 5766 5761 5754 5747 5742 5737 5733 5728 5723 5720 5715 5711
5730 5731 5748 5761 5771 5773 5752 5760 5777 5782 5783 5785 5785 5789 5797 5803 5803 5805 5807 5808 5808 5806 5803 5800 5798 5793 5788 5784 5780 5777 5772 5767 5761 5757 5751 5745 5739 5733 5728 5724 5718 5714 5710 5706
5724 5723 5733 5752 5757 5752 5753 5764 5769 5773 5777 5777 5780 5784 5789 5792 5794 5797 5798 5800 5799 5796 5795 5793 5790 5786 5781 5777 5775 5771 5765 5760 5755 5750 5746 5741 5734 5728 5723 5718 5712 5707 5703 5699
5722 5725 5735 5744 5745 5748 5753 5753 5758 5763 5768 5771 5772 5775 5779 5782 5785 5787 5789 5789 5790 5787 5784 5783 5782 5779 5774 5770 5767 5762 5756 5751 5747 5742 5737 5733 5728 5722 5716 5711 5708 5703 5699 5696
5710 5720 5726 5731 5735 5739 5743 5744 5750 5755 5759 5763 5764 5767 5770 5772 5775 5777 5779 5779 5779 5777 5774 5772 5772 5770 5767 5763 5760 5755 5749 5744 5739 5734 5728 5724 5720 5716 5711 5706 5702 5698 5694 5691
5700 5707 5714 5719 5723 5726 5731 5736 5741 5745 5749 5753 5756 5759 5761 5763 5765 5767 5768 5769 5769 5767 5765 5763 5762 5760 5759 5755 5752 5747 5742 5736 5731 5727 5721 5715 5711 5707 5703 5699 5696 5691 5689 5685
5694 5699 5703 5706 5712 5717 5720 5724 5729 5734 5738 5744 5748 5749 5752 5753 5755 5755 5756 5757 5757 5756 5755 5753 5752 5749 5748 5746 5743 5738 5733 5728 5725 5722 5715 5709 5703 5697 5690 5687 5682 5678 5675 5673
5687 5692 5694 5698 5703 5708 5711 5715 5719 5724 5728 5732 5738 5741 5742 5743 5743 5744 5745 5746 5745 5745 5744 5743 5742 5740 5738 5736 5733 5729 5724 5720 5717 5713 5708 5702 5697 5693 5687 5677 5671 5667 5664 5660
5678 5680 5682 5687 5692 5698 5701 5705 5710 5715 5719 5723 5727 5731 5732 5732 5733 5733 5733 5735 5736 5735 5734 5733 5731 5729 5728 5725 5722 5718 5715 5710 5707 5704 5701 5696 5691 5687 5683 5678 5671 5665 5657 5651
5668 5672 5675 5680 5685 5689 5693 5697 5700 5704 5708 5712 5716 5718 5719 5719 5720 5721 5723 5724 5724 5723 5722 5722 5720 5718 5717 5715 5712 5709 5706 5703 5699 5696 5692 5688 5683 5680 5676 5671 5667 5662 5657 5647
5658 5663 5667 5670 5674 5679 5684 5688 5690 5694 5697 5700 5703 5705 5707 5708 5709 5710 5710 5711 5710 5710 5710 5710 5708 5707 5706 5705 5702 5699 5695 5690 5687 5686 5683 5679 5675 5671 5668 5663 5660 5656 5652 5646
5647 5651 5656 5660 5665 5670 5675 5679 5681 5684 5687 5688 5690 5694 5696 5697 5697 5698 5698 5698 5699 5699 5699 5699 5698 5697 5695 5693 5691 5690 5687 5681 5675 5675 5674 5671 5668 5663 5659 5655 5652 5649 5645 5640
5641 5646 5650 5653 5657 5661 5665 5669 5672 5674 5677 5678 5681 5683 5684 5685 5686 5687 5687 5687 5687 5687 5688 5688 5688 5686 5684 5683 5680 5679 5677 5674 5669 5667 5664 5661 5658 5655 5650 5647 5644 5640 5637 5632
5634 5638 5643 5647 5651 5654 5657 5660 5662 5665 5667 5669 5669 5671 5673 5674 5675 5677 5677 5676 5676 5676 5677 5678 5674 5675 5674 5672 5668 5667 5667 5665 5661 5657 5655 5650 5648 5646 5643 5640 5637 5633 5630 5626
5626 5631 5634 5638 5643 5646 5649 5652 5654 5656 5657 5659 5659 5660 5662 5664 5665 5666 5666 5666 5668 5669 5668 5666 5665 5665 5664 5662 5659 5660 5659 5657 5653 5650 5647 5644 5641 5637 5635 5632 5629 5626 5622 5619
5618 5621 5624 5627 5631 5635 5639 5642 5644 5645 5647 5648 5649 5650 5652 5654 5655 5655 5656 5657 5657 5657 5657 5654 5655 5656 5655 5652 5649 5652 5650 5648 5645 5641 5638 5635 5632 5629 5626 5624 5621 5618 5615 5611
5610 5612 5616 5619 5622 5625 5629 5632 5635 5637 5638 5640 5641 5643 5644 5645 5646 5647 5647 5648 5648 5645 5647 5648 5648 5646 5644 5641 5643 5643 5641 5638 5636 5633 5630 5627 5624 5622 5619 5616 5614 5611 5607 5604
5602 5605 5607 5610 5613 5616 5620 5623 5626 5628 5629 5631 5633 5634 5636 5638 5641 5640 5638 5640 5640 5637 5638 5639 5636 5632 5630 5633 5635 5634 5632 5629 5627 5625 5622 5618 5615 5613 5611 5608 5605 5603 5600 5596
5596 5598 5600 5603 5606 5609 5611 5615 5618 5620 5622 5624 5626 5628 5629 5631 5632 5634 5633 5630 5629 5628 5630 5627 5624 5622 5621 5626 5627 5626 5624 5621 5619 5617 5614 5612 5608 5605 5602 5600 5597 5595 5592 5589
5591 5593 5595 5597 5599 5602 5606 5609 5611 5612 5615 5617 5620 5622 5624 5625 5625 5625 5624 5623 5620 5620 5622 5619 5615 5614 5616 5618 5618 5617 5615 5612 5610 5609 5606 5604 5601 5598 5595 5593 5590 5588 5586 5583
5587 5589 5591 5592 5595 5598 5602 5604 5606 5608 5610 5612 5614 5616 5617 5618 5617 5617 5617 5617 5616 5614 5615 5614 5611 5608 5610 5610 5608 5607 5605 5602 5600 5598 5596 5594 5592 5590 5588 5587 5583 5581 5580 5578
5585 5586 5587 5589 5593 5595 5598 5600 5601 5603 5605 5605 5607 5609 5610 5610 5611 5610 5611 5611 5610 5609 5608 5606 5604 5603 5602 5601 5599 5598 5596 5594 5592 5589 5587 5586 5584 5583 5582 5579 5577 5575 5572 5571